Time,TemperatureF,DewpointF,PressureIn,WindDirection,WindDirectionDegrees,WindSpeedMPH,WindSpeedGustMPH,Humidity,HourlyPrecipIn,Conditions,Clouds,dailyrainin,SoftwareType,DateUTC
2013-09-06 00:01:00,59.9,58.2,28.39,North,360,5.0,6.0,94,0.00,,,0.00,Weather View 32 v70,2013-09-06 04:01:00,
2013-09-06 00:06:00,60.1,58.4,28.39,NE,45,3.0,6.0,94,0.00,,,0.00,Weather View 32 v70,2013-09-06 04:06:00,
2013-09-06 00:11:00,60.1,58.1,28.39,North,360,0.0,6.0,93,0.00,,,0.00,Weather View 32 v70,2013-09-06 04:11:00,
2013-09-06 00:16:00,59.9,57.9,28.39,NNE,22,1.0,6.0,93,0.00,,,0.00,Weather View 32 v70,2013-09-06 04:16:00,
2013-09-06 00:21:00,59.6,57.6,28.39,NNE,22,0.0,6.0,93,0.00,,,0.00,Weather View 32 v70,2013-09-06 04:21:00,
2013-09-06 00:26:00,59.3,57.6,28.39,NNE,22,1.0,6.0,94,0.00,,,0.00,Weather View 32 v70,2013-09-06 04:26:00,
2013-09-06 00:31:00,58.9,57.5,28.39,North,360,0.0,6.0,95,0.00,,,0.00,Weather View 32 v70,2013-09-06 04:31:00,
2013-09-06 00:36:00,58.8,57.7,28.39,NNE,22,2.0,6.0,96,0.00,,,0.00,Weather View 32 v70,2013-09-06 04:36:00,
2013-09-06 00:42:00,58.9,58.0,28.39,North,360,4.0,6.0,97,0.00,,,0.00,Weather View 32 v70,2013-09-06 04:42:00,
2013-09-06 00:47:00,58.9,58.0,28.40,NNE,22,2.0,6.0,97,0.00,,,0.00,Weather View 32 v70,2013-09-06 04:47:00,
2013-09-06 00:52:00,58.9,58.0,28.40,North,360,5.0,6.0,97,0.00,,,0.00,Weather View 32 v70,2013-09-06 04:52:00,
2013-09-06 00:57:00,59.2,58.1,28.40,North,360,2.0,7.0,96,0.00,,,0.00,Weather View 32 v70,2013-09-06 04:57:00,
2013-09-06 01:02:00,59.2,57.8,28.40,North,360,2.0,7.0,95,0.00,,,0.00,Weather View 32 v70,2013-09-06 05:02:00,
2013-09-06 01:07:00,59.2,57.8,28.40,North,360,1.0,7.0,95,0.00,,,0.00,Weather View 32 v70,2013-09-06 05:07:00,
2013-09-06 01:12:00,58.9,57.5,28.40,North,360,0.0,7.0,95,0.00,,,0.00,Weather View 32 v70,2013-09-06 05:12:00,
2013-09-06 01:17:00,58.9,57.5,28.40,West,270,0.0,7.0,95,0.00,,,0.00,Weather View 32 v70,2013-09-06 05:17:00,
2013-09-06 01:22:00,58.9,57.5,28.41,South,180,0.0,7.0,95,0.00,,,0.00,Weather View 32 v70,2013-09-06 05:22:00,
2013-09-06 01:27:00,59.1,57.4,28.41,South,180,0.0,7.0,94,0.00,,,0.00,Weather View 32 v70,2013-09-06 05:27:00,
2013-09-06 01:32:00,59.0,57.3,28.41,NNE,22,3.0,7.0,94,0.00,,,0.00,Weather View 32 v70,2013-09-06 05:32:00,
2013-09-06 01:37:00,59.1,57.7,28.41,North,360,1.0,7.0,95,0.00,,,0.00,Weather View 32 v70,2013-09-06 05:37:00,
2013-09-06 01:42:00,58.9,57.5,28.41,North,360,1.0,7.0,95,0.00,,,0.00,Weather View 32 v70,2013-09-06 05:42:00,
2013-09-06 01:47:00,58.5,57.4,28.41,North,360,2.0,7.0,96,0.00,,,0.00,Weather View 32 v70,2013-09-06 05:47:00,
2013-09-06 01:52:00,58.2,57.3,28.40,North,360,2.0,7.0,97,0.00,,,0.00,Weather View 32 v70,2013-09-06 05:52:00,
2013-09-06 01:57:00,58.1,57.5,28.40,North,360,4.0,6.0,98,0.00,,,0.00,Weather View 32 v70,2013-09-06 05:57:00,
2013-09-06 02:02:00,58.1,57.5,28.40,East,90,2.0,6.0,98,0.00,,,0.00,Weather View 32 v70,2013-09-06 06:02:00,
2013-09-06 02:07:00,58.1,57.5,28.41,NNE,22,0.0,4.0,98,0.00,,,0.00,Weather View 32 v70,2013-09-06 06:07:00,
2013-09-06 02:12:00,57.9,57.1,28.41,North,360,1.0,4.0,97,0.00,,,0.00,Weather View 32 v70,2013-09-06 06:12:00,
2013-09-06 02:17:00,57.9,57.1,28.40,North,360,5.0,6.0,97,0.00,,,0.00,Weather View 32 v70,2013-09-06 06:17:00,
2013-09-06 02:22:00,58.1,57.5,28.40,North,360,4.0,7.0,98,0.00,,,0.00,Weather View 32 v70,2013-09-06 06:22:00,
2013-09-06 02:27:00,58.1,57.5,28.40,North,360,4.0,7.0,98,0.00,,,0.00,Weather View 32 v70,2013-09-06 06:27:00,
2013-09-06 02:32:00,58.2,57.3,28.40,NNE,22,4.0,7.0,97,0.00,,,0.00,Weather View 32 v70,2013-09-06 06:32:00,
2013-09-06 02:37:00,58.1,57.2,28.41,North,360,3.0,7.0,97,0.00,,,0.00,Weather View 32 v70,2013-09-06 06:37:00,
2013-09-06 02:42:00,58.1,57.2,28.40,North,360,4.0,7.0,97,0.00,,,0.00,Weather View 32 v70,2013-09-06 06:42:00,
2013-09-06 02:47:00,57.9,56.8,28.40,North,360,3.0,7.0,96,0.00,,,0.00,Weather View 32 v70,2013-09-06 06:47:00,
2013-09-06 02:52:00,57.8,57.0,28.41,North,360,3.0,7.0,97,0.00,,,0.00,Weather View 32 v70,2013-09-06 06:52:00,
2013-09-06 02:57:00,57.7,56.9,28.41,North,360,2.0,7.0,97,0.00,,,0.00,Weather View 32 v70,2013-09-06 06:57:00,
2013-09-06 03:02:00,57.5,56.7,28.41,North,360,3.0,7.0,97,0.00,,,0.00,Weather View 32 v70,2013-09-06 07:02:00,
2013-09-06 03:07:00,57.4,56.6,28.40,North,360,5.0,7.0,97,0.00,,,0.00,Weather View 32 v70,2013-09-06 07:07:00,
2013-09-06 03:12:00,57.3,56.5,28.40,North,360,3.0,7.0,97,0.00,,,0.00,Weather View 32 v70,2013-09-06 07:12:00,
2013-09-06 03:17:00,57.0,56.2,28.40,North,360,3.0,7.0,97,0.00,,,0.00,Weather View 32 v70,2013-09-06 07:17:00,
2013-09-06 03:22:00,56.9,56.1,28.40,North,360,5.0,7.0,97,0.00,,,0.00,Weather View 32 v70,2013-09-06 07:22:00,
2013-09-06 03:27:00,56.7,55.9,28.40,North,360,2.0,7.0,97,0.00,,,0.00,Weather View 32 v70,2013-09-06 07:27:00,
2013-09-06 03:32:00,56.6,55.8,28.40,North,360,2.0,7.0,97,0.00,,,0.00,Weather View 32 v70,2013-09-06 07:32:00,
2013-09-06 03:37:00,56.5,55.7,28.40,North,360,3.0,7.0,97,0.00,,,0.00,Weather View 32 v70,2013-09-06 07:37:00,
2013-09-06 03:42:00,56.5,55.4,28.40,North,360,2.0,6.0,96,0.00,,,0.00,Weather View 32 v70,2013-09-06 07:42:00,
2013-09-06 03:47:00,56.5,55.4,28.41,NNE,22,3.0,6.0,96,0.00,,,0.00,Weather View 32 v70,2013-09-06 07:47:00,
2013-09-06 03:52:00,56.4,55.0,28.41,NNE,22,3.0,6.0,95,0.00,,,0.00,Weather View 32 v70,2013-09-06 07:52:00,
2013-09-06 03:57:00,56.4,55.0,28.41,North,360,2.0,6.0,95,0.00,,,0.00,Weather View 32 v70,2013-09-06 07:57:00,
2013-09-06 04:02:00,56.3,54.9,28.40,NNE,22,2.0,6.0,95,0.00,,,0.00,Weather View 32 v70,2013-09-06 08:02:00,
2013-09-06 04:07:00,56.3,54.9,28.40,North,360,4.0,6.0,95,0.00,,,0.00,Weather View 32 v70,2013-09-06 08:07:00,
2013-09-06 04:12:00,56.2,54.8,28.40,North,360,6.0,6.0,95,0.00,,,0.00,Weather View 32 v70,2013-09-06 08:12:00,
2013-09-06 04:17:00,56.1,55.0,28.40,North,360,4.0,6.0,96,0.00,,,0.00,Weather View 32 v70,2013-09-06 08:17:00,
2013-09-06 04:22:00,55.9,54.5,28.41,NNE,22,4.0,6.0,95,0.00,,,0.00,Weather View 32 v70,2013-09-06 08:22:00,
2013-09-06 04:27:00,55.9,54.5,28.41,NNE,22,2.0,6.0,95,0.00,,,0.00,Weather View 32 v70,2013-09-06 08:27:00,
2013-09-06 04:32:00,55.7,54.3,28.41,North,360,2.0,6.0,95,0.00,,,0.00,Weather View 32 v70,2013-09-06 08:32:00,
2013-09-06 04:37:00,55.5,54.4,28.41,North,360,4.0,6.0,96,0.00,,,0.00,Weather View 32 v70,2013-09-06 08:37:00,
2013-09-06 04:42:00,55.4,54.3,28.41,North,360,4.0,6.0,96,0.00,,,0.00,Weather View 32 v70,2013-09-06 08:42:00,
2013-09-06 04:47:00,55.2,54.1,28.41,NNE,22,3.0,6.0,96,0.00,,,0.00,Weather View 32 v70,2013-09-06 08:47:00,
2013-09-06 04:52:00,55.1,54.0,28.41,NNE,22,4.0,6.0,96,0.00,,,0.00,Weather View 32 v70,2013-09-06 08:52:00,
2013-09-06 04:57:00,54.9,53.8,28.41,NNE,22,4.0,6.0,96,0.00,,,0.00,Weather View 32 v70,2013-09-06 08:57:00,
2013-09-06 05:02:00,54.9,53.5,28.41,North,360,4.0,6.0,95,0.00,,,0.00,Weather View 32 v70,2013-09-06 09:02:00,
2013-09-06 05:07:00,55.2,52.9,28.41,North,360,4.0,6.0,92,0.00,,,0.00,Weather View 32 v70,2013-09-06 09:07:00,
2013-09-06 05:12:00,55.1,52.8,28.41,North,360,4.0,6.0,92,0.00,,,0.00,Weather View 32 v70,2013-09-06 09:12:00,
2013-09-06 05:17:00,55.3,52.7,28.41,North,360,4.0,6.0,91,0.00,,,0.00,Weather View 32 v70,2013-09-06 09:17:00,
2013-09-06 05:22:00,55.3,52.7,28.41,North,360,2.0,6.0,91,0.00,,,0.00,Weather View 32 v70,2013-09-06 09:22:00,
2013-09-06 05:27:00,55.3,52.7,28.41,NE,45,2.0,6.0,91,0.00,,,0.00,Weather View 32 v70,2013-09-06 09:27:00,
2013-09-06 05:32:00,55.1,52.5,28.41,NNE,22,2.0,6.0,91,0.00,,,0.00,Weather View 32 v70,2013-09-06 09:32:00,
2013-09-06 05:37:00,54.8,52.2,28.41,NNE,22,2.0,6.0,91,0.00,,,0.00,Weather View 32 v70,2013-09-06 09:37:00,
2013-09-06 05:42:00,54.4,52.1,28.41,NNE,22,3.0,6.0,92,0.00,,,0.00,Weather View 32 v70,2013-09-06 09:42:00,
2013-09-06 05:47:00,54.1,52.1,28.41,NNE,22,1.0,6.0,93,0.00,,,0.00,Weather View 32 v70,2013-09-06 09:47:00,
2013-09-06 05:52:00,53.9,51.9,28.41,North,360,3.0,6.0,93,0.00,,,0.00,Weather View 32 v70,2013-09-06 09:52:00,
2013-09-06 05:57:00,53.9,51.9,28.42,North,360,4.0,6.0,93,0.00,,,0.00,Weather View 32 v70,2013-09-06 09:57:00,
2013-09-06 06:02:00,53.8,52.1,28.42,North,360,4.0,8.0,94,0.00,,,0.00,Weather View 32 v70,2013-09-06 10:02:00,
2013-09-06 06:07:00,53.6,52.2,28.42,North,360,2.0,8.0,95,0.00,,,0.00,Weather View 32 v70,2013-09-06 10:07:00,
2013-09-06 06:12:00,53.4,52.0,28.43,NNE,22,2.0,8.0,95,0.00,,,0.00,Weather View 32 v70,2013-09-06 10:12:00,
2013-09-06 06:17:00,53.2,51.5,28.43,NNE,22,2.0,8.0,94,0.00,,,0.00,Weather View 32 v70,2013-09-06 10:17:00,
2013-09-06 06:22:00,53.1,51.4,28.43,NNE,22,4.0,8.0,94,0.00,,,0.00,Weather View 32 v70,2013-09-06 10:22:00,
2013-09-06 06:27:00,53.1,51.4,28.43,NNE,22,2.0,8.0,94,0.00,,,0.00,Weather View 32 v70,2013-09-06 10:27:00,
2013-09-06 06:32:00,53.1,51.4,28.43,NNE,22,4.0,8.0,94,0.00,,,0.00,Weather View 32 v70,2013-09-06 10:32:00,
2013-09-06 06:37:00,53.0,51.0,28.43,North,360,4.0,8.0,93,0.00,,,0.00,Weather View 32 v70,2013-09-06 10:37:00,
2013-09-06 06:42:00,53.1,50.8,28.43,NNE,22,3.0,8.0,92,0.00,,,0.00,Weather View 32 v70,2013-09-06 10:42:00,
2013-09-06 06:47:00,53.2,50.9,28.44,North,360,4.0,8.0,92,0.00,,,0.00,Weather View 32 v70,2013-09-06 10:47:00,
2013-09-06 06:52:00,53.3,50.7,28.44,NNE,22,4.0,8.0,91,0.00,,,0.00,Weather View 32 v70,2013-09-06 10:52:00,
2013-09-06 06:57:00,53.2,50.6,28.44,North,360,2.0,8.0,91,0.00,,,0.00,Weather View 32 v70,2013-09-06 10:57:00,
2013-09-06 07:02:00,53.1,50.5,28.44,North,360,1.0,7.0,91,0.00,,,0.00,Weather View 32 v70,2013-09-06 11:02:00,
2013-09-06 07:07:00,52.9,50.3,28.45,North,360,2.0,6.0,91,0.00,,,0.00,Weather View 32 v70,2013-09-06 11:07:00,
2013-09-06 07:12:00,52.7,50.4,28.45,North,360,1.0,6.0,92,0.00,,,0.00,Weather View 32 v70,2013-09-06 11:12:00,
2013-09-06 07:17:00,52.5,50.5,28.45,North,360,2.0,6.0,93,0.00,,,0.00,Weather View 32 v70,2013-09-06 11:17:00,
2013-09-06 07:22:00,52.3,50.9,28.45,North,360,3.0,6.0,95,0.00,,,0.00,Weather View 32 v70,2013-09-06 11:22:00,
2013-09-06 07:27:00,52.2,50.8,28.45,NNE,22,1.0,6.0,95,0.00,,,0.00,Weather View 32 v70,2013-09-06 11:27:00,
2013-09-06 07:32:00,52.2,50.8,28.45,NNE,22,1.0,6.0,95,0.00,,,0.00,Weather View 32 v70,2013-09-06 11:32:00,
2013-09-06 07:37:00,52.3,50.9,28.45,NNE,22,3.0,6.0,95,0.00,,,0.00,Weather View 32 v70,2013-09-06 11:37:00,
2013-09-06 07:42:00,52.5,50.8,28.45,NNE,22,2.0,6.0,94,0.00,,,0.00,Weather View 32 v70,2013-09-06 11:42:00,
2013-09-06 07:47:00,52.8,51.1,28.45,North,360,2.0,6.0,94,0.00,,,0.00,Weather View 32 v70,2013-09-06 11:47:00,
2013-09-06 07:52:00,53.0,51.0,28.45,NNE,22,1.0,5.0,93,0.00,,,0.00,Weather View 32 v70,2013-09-06 11:52:00,
2013-09-06 07:57:00,53.4,51.4,28.45,North,360,2.0,5.0,93,0.00,,,0.00,Weather View 32 v70,2013-09-06 11:57:00,
2013-09-06 08:02:00,53.7,51.4,28.45,NNE,22,2.0,5.0,92,0.00,,,0.00,Weather View 32 v70,2013-09-06 12:02:00,
2013-09-06 08:07:00,54.2,52.2,28.46,NNE,22,2.0,5.0,93,0.00,,,0.00,Weather View 32 v70,2013-09-06 12:07:00,
2013-09-06 08:12:00,55.1,52.5,28.46,North,360,0.0,5.0,91,0.00,,,0.00,Weather View 32 v70,2013-09-06 12:12:00,
2013-09-06 08:17:00,56.2,53.9,28.46,North,360,1.0,5.0,92,0.00,,,0.00,Weather View 32 v70,2013-09-06 12:17:00,
2013-09-06 08:22:00,57.4,54.8,28.46,North,360,1.0,5.0,91,0.00,,,0.00,Weather View 32 v70,2013-09-06 12:22:00,
2013-09-06 08:27:00,58.4,55.2,28.46,North,360,2.0,5.0,89,0.00,,,0.00,Weather View 32 v70,2013-09-06 12:27:00,
2013-09-06 08:32:00,59.3,55.1,28.47,North,360,1.0,5.0,86,0.00,,,0.00,Weather View 32 v70,2013-09-06 12:32:00,
2013-09-06 08:37:00,60.1,54.2,28.47,North,360,1.0,5.0,81,0.00,,,0.00,Weather View 32 v70,2013-09-06 12:37:00,
2013-09-06 08:42:00,60.8,55.9,28.46,NE,45,0.0,4.0,84,0.00,,,0.00,Weather View 32 v70,2013-09-06 12:42:00,
2013-09-06 08:47:00,61.4,56.8,28.46,ENE,67,0.0,4.0,85,0.00,,,0.00,Weather View 32 v70,2013-09-06 12:47:00,
2013-09-06 08:52:00,62.1,57.8,28.47,SE,135,0.0,4.0,86,0.00,,,0.00,Weather View 32 v70,2013-09-06 12:52:00,
2013-09-06 08:57:00,62.9,54.8,28.47,NNE,22,2.0,4.0,75,0.00,,,0.00,Weather View 32 v70,2013-09-06 12:57:00,
2013-09-06 09:02:00,63.4,54.9,28.47,East,90,1.0,4.0,74,0.00,,,0.00,Weather View 32 v70,2013-09-06 13:02:00,
2013-09-06 09:07:00,63.8,54.2,28.47,East,90,0.0,6.0,71,0.00,,,0.00,Weather View 32 v70,2013-09-06 13:07:00,
2013-09-06 09:12:00,64.1,55.2,28.47,ESE,112,0.0,6.0,73,0.00,,,0.00,Weather View 32 v70,2013-09-06 13:12:00,
2013-09-06 09:17:00,64.4,54.0,28.47,NNE,22,2.0,6.0,69,0.00,,,0.00,Weather View 32 v70,2013-09-06 13:17:00,
2013-09-06 09:22:00,64.9,55.6,28.47,NNE,22,1.0,6.0,72,0.00,,,0.00,Weather View 32 v70,2013-09-06 13:22:00,
2013-09-06 09:27:00,65.6,57.1,28.47,NNE,22,3.0,6.0,74,0.00,,,0.00,Weather View 32 v70,2013-09-06 13:27:00,
2013-09-06 09:32:00,65.9,55.8,28.47,SE,135,1.0,6.0,70,0.00,,,0.00,Weather View 32 v70,2013-09-06 13:32:00,
2013-09-06 09:37:00,66.1,54.4,28.47,NE,45,1.0,6.0,66,0.00,,,0.00,Weather View 32 v70,2013-09-06 13:37:00,
2013-09-06 09:42:00,66.0,53.9,28.47,NE,45,0.0,6.0,65,0.00,,,0.00,Weather View 32 v70,2013-09-06 13:42:00,
2013-09-06 09:47:00,65.9,53.3,28.48,NNE,22,2.0,6.0,64,0.00,,,0.00,Weather View 32 v70,2013-09-06 13:47:00,
2013-09-06 09:52:00,66.2,54.9,28.47,North,360,2.0,6.0,67,0.00,,,0.00,Weather View 32 v70,2013-09-06 13:52:00,
2013-09-06 09:57:00,66.3,54.1,28.47,North,360,6.0,6.0,65,0.00,,,0.00,Weather View 32 v70,2013-09-06 13:57:00,
2013-09-06 10:02:00,66.4,53.4,28.47,ESE,112,1.0,7.0,63,0.00,,,0.00,Weather View 32 v70,2013-09-06 14:02:00,
2013-09-06 10:07:00,66.9,54.7,28.47,North,360,2.0,7.0,65,0.00,,,0.00,Weather View 32 v70,2013-09-06 14:07:00,
2013-09-06 10:12:00,67.1,54.0,28.47,SE,135,0.0,7.0,63,0.00,,,0.00,Weather View 32 v70,2013-09-06 14:12:00,
2013-09-06 10:18:00,67.6,55.0,28.47,East,90,2.0,7.0,64,0.00,,,0.00,Weather View 32 v70,2013-09-06 14:18:00,
2013-09-06 10:23:00,67.4,54.3,28.47,SE,135,2.0,7.0,63,0.00,,,0.00,Weather View 32 v70,2013-09-06 14:23:00,
2013-09-06 10:28:00,67.4,55.6,28.47,NNE,22,2.0,7.0,66,0.00,,,0.00,Weather View 32 v70,2013-09-06 14:28:00,
2013-09-06 10:33:00,67.7,54.6,28.47,SE,135,1.0,7.0,63,0.00,,,0.00,Weather View 32 v70,2013-09-06 14:33:00,
2013-09-06 10:38:00,67.8,53.4,28.48,NNE,22,1.0,7.0,60,0.00,,,0.00,Weather View 32 v70,2013-09-06 14:38:00,
2013-09-06 10:43:00,67.8,55.6,28.48,SE,135,1.0,7.0,65,0.00,,,0.00,Weather View 32 v70,2013-09-06 14:43:00,
2013-09-06 10:48:00,67.9,53.9,28.48,SE,135,1.0,7.0,61,0.00,,,0.00,Weather View 32 v70,2013-09-06 14:48:00,
2013-09-06 10:53:00,68.7,56.4,28.48,ESE,112,2.0,7.0,65,0.00,,,0.00,Weather View 32 v70,2013-09-06 14:53:00,
2013-09-06 10:58:00,68.9,54.4,28.48,East,90,5.0,7.0,60,0.00,,,0.00,Weather View 32 v70,2013-09-06 14:58:00,
2013-09-06 11:03:00,67.9,51.6,28.48,SE,135,2.0,7.0,56,0.00,,,0.00,Weather View 32 v70,2013-09-06 15:03:00,
2013-09-06 11:08:00,66.9,51.1,28.48,SE,135,3.0,7.0,57,0.00,,,0.00,Weather View 32 v70,2013-09-06 15:08:00,
2013-09-06 11:13:00,67.7,53.7,28.48,East,90,2.0,7.0,61,0.00,,,0.00,Weather View 32 v70,2013-09-06 15:13:00,
2013-09-06 11:18:00,67.9,53.9,28.48,SE,135,2.0,7.0,61,0.00,,,0.00,Weather View 32 v70,2013-09-06 15:18:00,
2013-09-06 11:23:00,68.4,53.9,28.48,ESE,112,2.0,7.0,60,0.00,,,0.00,Weather View 32 v70,2013-09-06 15:23:00,
2013-09-06 11:28:00,69.2,55.6,28.48,East,90,3.0,7.0,62,0.00,,,0.00,Weather View 32 v70,2013-09-06 15:28:00,
2013-09-06 11:33:00,69.0,55.8,28.48,East,90,0.0,7.0,63,0.00,,,0.00,Weather View 32 v70,2013-09-06 15:33:00,
2013-09-06 11:38:00,68.6,52.2,28.48,SE,135,4.0,7.0,56,0.00,,,0.00,Weather View 32 v70,2013-09-06 15:38:00,
2013-09-06 11:43:00,68.4,54.8,28.48,SE,135,2.0,7.0,62,0.00,,,0.00,Weather View 32 v70,2013-09-06 15:43:00,
2013-09-06 11:48:00,68.0,54.5,28.48,ESE,112,2.0,7.0,62,0.00,,,0.00,Weather View 32 v70,2013-09-06 15:48:00,
2013-09-06 11:53:00,68.9,55.7,28.48,NE,45,0.0,7.0,63,0.00,,,0.00,Weather View 32 v70,2013-09-06 15:53:00,
2013-09-06 11:58:00,69.6,53.6,28.47,East,90,0.0,9.0,57,0.00,,,0.00,Weather View 32 v70,2013-09-06 15:58:00,
2013-09-06 12:03:00,69.2,53.8,28.47,East,90,2.0,9.0,58,0.00,,,0.00,Weather View 32 v70,2013-09-06 16:03:00,
2013-09-06 12:08:00,67.9,51.1,28.47,SE,135,2.0,9.0,55,0.00,,,0.00,Weather View 32 v70,2013-09-06 16:08:00,
2013-09-06 12:13:00,68.5,54.9,28.47,SE,135,0.0,9.0,62,0.00,,,0.00,Weather View 32 v70,2013-09-06 16:13:00,
2013-09-06 12:18:00,69.0,55.4,28.47,East,90,2.0,9.0,62,0.00,,,0.00,Weather View 32 v70,2013-09-06 16:18:00,
2013-09-06 12:23:00,69.9,55.3,28.47,NNE,22,2.0,9.0,60,0.00,,,0.00,Weather View 32 v70,2013-09-06 16:23:00,
2013-09-06 12:28:00,70.9,54.9,28.47,North,360,0.0,9.0,57,0.00,,,0.00,Weather View 32 v70,2013-09-06 16:28:00,
2013-09-06 12:33:00,71.1,53.0,28.47,SE,135,1.0,9.0,53,0.00,,,0.00,Weather View 32 v70,2013-09-06 16:33:00,
2013-09-06 12:38:00,70.8,51.2,28.47,SE,135,3.0,9.0,50,0.00,,,0.00,Weather View 32 v70,2013-09-06 16:38:00,
2013-09-06 12:43:00,69.2,51.8,28.47,SE,135,1.0,9.0,54,0.00,,,0.00,Weather View 32 v70,2013-09-06 16:43:00,
2013-09-06 12:48:00,69.2,51.8,28.47,ESE,112,2.0,9.0,54,0.00,,,0.00,Weather View 32 v70,2013-09-06 16:48:00,
2013-09-06 12:53:00,69.6,53.2,28.47,SE,135,4.0,9.0,56,0.00,,,0.00,Weather View 32 v70,2013-09-06 16:53:00,
2013-09-06 12:59:00,69.3,52.9,28.46,ESE,112,2.0,7.0,56,0.00,,,0.00,Weather View 32 v70,2013-09-06 16:59:00,
2013-09-06 13:04:00,69.1,53.2,28.46,SE,135,1.0,7.0,57,0.00,,,0.00,Weather View 32 v70,2013-09-06 17:04:00,
2013-09-06 13:09:00,70.2,55.2,28.46,East,90,0.0,7.0,59,0.00,,,0.00,Weather View 32 v70,2013-09-06 17:09:00,
2013-09-06 13:14:00,71.3,52.2,28.46,ESE,112,2.0,7.0,51,0.00,,,0.00,Weather View 32 v70,2013-09-06 17:14:00,
2013-09-06 13:19:00,71.9,52.7,28.46,South,180,2.0,7.0,51,0.00,,,0.00,Weather View 32 v70,2013-09-06 17:19:00,
2013-09-06 13:24:00,70.7,52.7,28.46,SE,135,1.0,7.0,53,0.00,,,0.00,Weather View 32 v70,2013-09-06 17:24:00,
2013-09-06 13:29:00,69.9,52.4,28.45,SE,135,1.0,7.0,54,0.00,,,0.00,Weather View 32 v70,2013-09-06 17:29:00,
2013-09-06 13:34:00,70.3,54.8,28.45,SE,135,2.0,7.0,58,0.00,,,0.00,Weather View 32 v70,2013-09-06 17:34:00,
2013-09-06 13:39:00,70.7,53.7,28.45,NW,315,1.0,7.0,55,0.00,,,0.00,Weather View 32 v70,2013-09-06 17:39:00,
2013-09-06 13:44:00,71.7,56.6,28.45,SW,225,2.0,7.0,59,0.00,,,0.00,Weather View 32 v70,2013-09-06 17:44:00,
2013-09-06 13:49:00,72.1,54.0,28.45,WSW,247,2.0,7.0,53,0.00,,,0.00,Weather View 32 v70,2013-09-06 17:49:00,
2013-09-06 13:54:00,71.8,52.6,28.45,SW,225,4.0,7.0,51,0.00,,,0.00,Weather View 32 v70,2013-09-06 17:54:00,
2013-09-06 13:59:00,71.1,54.1,28.45,SW,225,1.0,7.0,55,0.00,,,0.00,Weather View 32 v70,2013-09-06 17:59:00,
2013-09-06 14:04:00,71.4,54.3,28.44,SSW,202,3.0,7.0,55,0.00,,,0.00,Weather View 32 v70,2013-09-06 18:04:00,
2013-09-06 14:09:00,71.7,54.6,28.44,South,180,2.0,7.0,55,0.00,,,0.00,Weather View 32 v70,2013-09-06 18:09:00,
2013-09-06 14:14:00,71.7,56.6,28.44,SSE,157,0.0,7.0,59,0.00,,,0.00,Weather View 32 v70,2013-09-06 18:14:00,
2013-09-06 14:19:00,72.7,55.0,28.44,East,90,2.0,7.0,54,0.00,,,0.00,Weather View 32 v70,2013-09-06 18:19:00,
2013-09-06 14:24:00,73.8,55.0,28.44,NE,45,1.0,7.0,52,0.00,,,0.00,Weather View 32 v70,2013-09-06 18:24:00,
2013-09-06 14:29:00,74.8,56.5,28.43,East,90,1.0,7.0,53,0.00,,,0.00,Weather View 32 v70,2013-09-06 18:29:00,
2013-09-06 14:34:00,74.5,55.7,28.43,NE,45,2.0,7.0,52,0.00,,,0.00,Weather View 32 v70,2013-09-06 18:34:00,
2013-09-06 14:39:00,74.8,58.0,28.43,North,360,2.0,7.0,56,0.00,,,0.00,Weather View 32 v70,2013-09-06 18:39:00,
2013-09-06 14:44:00,75.6,58.2,28.43,East,90,2.0,7.0,55,0.00,,,0.00,Weather View 32 v70,2013-09-06 18:44:00,
2013-09-06 14:49:00,76.4,54.6,28.43,NE,45,2.0,7.0,47,0.00,,,0.00,Weather View 32 v70,2013-09-06 18:49:00,
2013-09-06 14:54:00,75.3,54.8,28.43,SE,135,3.0,7.0,49,0.00,,,0.00,Weather View 32 v70,2013-09-06 18:54:00,
2013-09-06 14:59:00,73.9,55.1,28.42,ESE,112,2.0,7.0,52,0.00,,,0.00,Weather View 32 v70,2013-09-06 18:59:00,
2013-09-06 15:04:00,73.9,56.7,28.42,East,90,1.0,7.0,55,0.00,,,0.00,Weather View 32 v70,2013-09-06 19:04:00,
2013-09-06 15:09:00,73.5,55.3,28.42,ESE,112,2.0,7.0,53,0.00,,,0.00,Weather View 32 v70,2013-09-06 19:09:00,
2013-09-06 15:14:00,74.1,54.2,28.42,NNW,337,2.0,7.0,50,0.00,,,0.00,Weather View 32 v70,2013-09-06 19:14:00,
2013-09-06 15:19:00,74.6,54.1,28.41,ESE,112,2.0,7.0,49,0.00,,,0.00,Weather View 32 v70,2013-09-06 19:19:00,
2013-09-06 15:24:00,75.3,58.0,28.41,NNE,22,1.0,7.0,55,0.00,,,0.00,Weather View 32 v70,2013-09-06 19:24:00,
2013-09-06 15:29:00,76.3,58.4,28.41,ENE,67,0.0,7.0,54,0.00,,,0.00,Weather View 32 v70,2013-09-06 19:29:00,
2013-09-06 15:34:00,76.5,56.4,28.41,ESE,112,0.0,7.0,50,0.00,,,0.00,Weather View 32 v70,2013-09-06 19:34:00,
2013-09-06 15:39:00,76.4,56.9,28.41,SE,135,1.0,7.0,51,0.00,,,0.00,Weather View 32 v70,2013-09-06 19:39:00,
2013-09-06 15:44:00,75.9,56.4,28.41,South,180,0.0,7.0,51,0.00,,,0.00,Weather View 32 v70,2013-09-06 19:44:00,
2013-09-06 15:49:00,75.9,58.0,28.41,SE,135,0.0,7.0,54,0.00,,,0.00,Weather View 32 v70,2013-09-06 19:49:00,
2013-09-06 15:54:00,76.3,58.4,28.40,SSW,202,1.0,7.0,54,0.00,,,0.00,Weather View 32 v70,2013-09-06 19:54:00,
2013-09-06 16:00:00,76.8,56.7,28.40,SE,135,2.0,7.0,50,0.00,,,0.00,Weather View 32 v70,2013-09-06 20:00:00,
2013-09-06 16:05:00,76.8,55.0,28.40,North,360,1.0,6.0,47,0.00,,,0.00,Weather View 32 v70,2013-09-06 20:05:00,
2013-09-06 16:10:00,77.2,58.2,28.40,East,90,0.0,4.0,52,0.00,,,0.00,Weather View 32 v70,2013-09-06 20:10:00,
2013-09-06 16:15:00,77.6,59.1,28.40,SE,135,2.0,4.0,53,0.00,,,0.00,Weather View 32 v70,2013-09-06 20:15:00,
2013-09-06 16:20:00,77.4,58.9,28.40,SSE,157,2.0,4.0,53,0.00,,,0.00,Weather View 32 v70,2013-09-06 20:20:00,
2013-09-06 16:25:00,76.7,56.0,28.40,SW,225,2.0,4.0,49,0.00,,,0.00,Weather View 32 v70,2013-09-06 20:25:00,
2013-09-06 16:30:00,76.4,56.3,28.40,South,180,2.0,4.0,50,0.00,,,0.00,Weather View 32 v70,2013-09-06 20:30:00,
2013-09-06 16:35:00,75.8,54.6,28.40,SSE,157,1.0,4.0,48,0.00,,,0.00,Weather View 32 v70,2013-09-06 20:35:00,
2013-09-06 16:40:00,76.2,55.6,28.40,SE,135,2.0,4.0,49,0.00,,,0.00,Weather View 32 v70,2013-09-06 20:40:00,
2013-09-06 16:45:00,74.8,55.4,28.39,SE,135,2.0,5.0,51,0.00,,,0.00,Weather View 32 v70,2013-09-06 20:45:00,
2013-09-06 16:50:00,75.5,54.4,28.39,SE,135,2.0,5.0,48,0.00,,,0.00,Weather View 32 v70,2013-09-06 20:50:00,
2013-09-06 16:55:00,75.8,58.4,28.39,SW,225,2.0,5.0,55,0.00,,,0.00,Weather View 32 v70,2013-09-06 20:55:00,
2013-09-06 17:00:00,75.6,53.9,28.39,SE,135,3.0,5.0,47,0.00,,,0.00,Weather View 32 v70,2013-09-06 21:00:00,
2013-09-06 17:05:00,75.2,55.2,28.39,ESE,112,2.0,5.0,50,0.00,,,0.00,Weather View 32 v70,2013-09-06 21:05:00,
2013-09-06 17:10:00,74.0,55.2,28.39,SE,135,2.0,6.0,52,0.00,,,0.00,Weather View 32 v70,2013-09-06 21:10:00,
2013-09-06 17:15:00,74.4,54.5,28.39,South,180,2.0,6.0,50,0.00,,,0.00,Weather View 32 v70,2013-09-06 21:15:00,
2013-09-06 17:20:00,74.9,56.0,28.39,South,180,2.0,6.0,52,0.00,,,0.00,Weather View 32 v70,2013-09-06 21:20:00,
2013-09-06 17:25:00,74.5,54.6,28.39,SE,135,2.0,6.0,50,0.00,,,0.00,Weather View 32 v70,2013-09-06 21:25:00,
2013-09-06 17:30:00,75.3,58.0,28.39,SE,135,0.0,6.0,55,0.00,,,0.00,Weather View 32 v70,2013-09-06 21:30:00,
2013-09-06 17:35:00,75.9,55.3,28.39,SSW,202,2.0,6.0,49,0.00,,,0.00,Weather View 32 v70,2013-09-06 21:35:00,
2013-09-06 17:40:00,76.5,57.5,28.39,SW,225,1.0,6.0,52,0.00,,,0.00,Weather View 32 v70,2013-09-06 21:40:00,
2013-09-06 17:45:00,76.3,56.2,28.39,SSW,202,2.0,6.0,50,0.00,,,0.00,Weather View 32 v70,2013-09-06 21:45:00,
2013-09-06 17:50:00,76.2,58.8,28.39,SW,225,0.0,6.0,55,0.00,,,0.00,Weather View 32 v70,2013-09-06 21:50:00,
2013-09-06 17:55:00,76.4,57.9,28.39,SSW,202,2.0,6.0,53,0.00,,,0.00,Weather View 32 v70,2013-09-06 21:55:00,
2013-09-06 18:00:00,76.3,58.4,28.39,South,180,2.0,6.0,54,0.00,,,0.00,Weather View 32 v70,2013-09-06 22:00:00,
2013-09-06 18:05:00,76.7,54.9,28.39,South,180,3.0,6.0,47,0.00,,,0.00,Weather View 32 v70,2013-09-06 22:05:00,
2013-09-06 18:10:00,76.1,54.3,28.39,SW,225,2.0,5.0,47,0.00,,,0.00,Weather View 32 v70,2013-09-06 22:10:00,
2013-09-06 18:15:00,75.8,57.4,28.39,South,180,1.0,4.0,53,0.00,,,0.00,Weather View 32 v70,2013-09-06 22:15:00,
2013-09-06 18:20:00,74.9,53.2,28.39,South,180,2.0,4.0,47,0.00,,,0.00,Weather View 32 v70,2013-09-06 22:20:00,
2013-09-06 18:25:00,74.5,55.1,28.39,South,180,1.0,4.0,51,0.00,,,0.00,Weather View 32 v70,2013-09-06 22:25:00,
2013-09-06 18:31:00,74.7,56.9,28.38,South,180,2.0,4.0,54,0.00,,,0.00,Weather View 32 v70,2013-09-06 22:31:00,
2013-09-06 18:36:00,74.9,58.1,28.38,South,180,2.0,4.0,56,0.00,,,0.00,Weather View 32 v70,2013-09-06 22:36:00,
2013-09-06 18:41:00,74.9,57.6,28.38,SW,225,1.0,4.0,55,0.00,,,0.00,Weather View 32 v70,2013-09-06 22:41:00,
2013-09-06 18:46:00,74.7,59.4,28.38,SW,225,1.0,4.0,59,0.00,,,0.00,Weather View 32 v70,2013-09-06 22:46:00,
2013-09-06 18:51:00,74.6,59.8,28.38,SW,225,1.0,4.0,60,0.00,,,0.00,Weather View 32 v70,2013-09-06 22:51:00,
2013-09-06 18:56:00,74.3,61.7,28.38,SW,225,1.0,4.0,65,0.00,,,0.00,Weather View 32 v70,2013-09-06 22:56:00,
2013-09-06 19:01:00,74.1,61.1,28.38,SW,225,0.0,4.0,64,0.00,,,0.00,Weather View 32 v70,2013-09-06 23:01:00,
2013-09-06 19:06:00,73.6,58.8,28.38,SW,225,0.0,4.0,60,0.00,,,0.00,Weather View 32 v70,2013-09-06 23:06:00,
2013-09-06 19:11:00,73.1,56.9,28.38,SW,225,0.0,3.0,57,0.00,,,0.00,Weather View 32 v70,2013-09-06 23:11:00,
2013-09-06 19:16:00,72.6,56.9,28.38,SW,225,0.0,3.0,58,0.00,,,0.00,Weather View 32 v70,2013-09-06 23:16:00,
2013-09-06 19:21:00,71.7,55.6,28.38,SW,225,0.0,3.0,57,0.00,,,0.00,Weather View 32 v70,2013-09-06 23:21:00,
2013-09-06 19:26:00,70.7,55.6,28.38,SW,225,0.0,2.0,59,0.00,,,0.00,Weather View 32 v70,2013-09-06 23:26:00,
2013-09-06 19:31:00,69.7,55.2,28.38,SW,225,0.0,2.0,60,0.00,,,0.00,Weather View 32 v70,2013-09-06 23:31:00,
2013-09-06 19:36:00,68.7,56.0,28.38,SW,225,0.0,2.0,64,0.00,,,0.00,Weather View 32 v70,2013-09-06 23:36:00,
2013-09-06 19:41:00,67.8,55.6,28.38,SW,225,0.0,2.0,65,0.00,,,0.00,Weather View 32 v70,2013-09-06 23:41:00,
2013-09-06 19:46:00,66.9,55.6,28.38,SW,225,0.0,2.0,67,0.00,,,0.00,Weather View 32 v70,2013-09-06 23:46:00,
2013-09-06 19:51:00,66.3,55.8,28.38,SW,225,0.0,2.0,69,0.00,,,0.00,Weather View 32 v70,2013-09-06 23:51:00,
2013-09-06 19:56:00,65.7,56.0,28.38,SW,225,0.0,2.0,71,0.00,,,0.00,Weather View 32 v70,2013-09-06 23:56:00,
2013-09-06 20:01:00,65.2,56.3,28.38,SW,225,0.0,0.0,73,0.00,,,0.00,Weather View 32 v70,2013-09-07 00:01:00,
2013-09-06 20:06:00,64.7,56.6,28.38,WNW,292,0.0,1.0,75,0.00,,,0.00,Weather View 32 v70,2013-09-07 00:06:00,
2013-09-06 20:11:00,64.2,56.5,28.38,North,360,1.0,2.0,76,0.00,,,0.00,Weather View 32 v70,2013-09-07 00:11:00,
2013-09-06 20:16:00,63.7,57.0,28.38,North,360,0.0,2.0,79,0.00,,,0.00,Weather View 32 v70,2013-09-07 00:16:00,
2013-09-06 20:21:00,62.9,57.0,28.38,North,360,2.0,2.0,81,0.00,,,0.00,Weather View 32 v70,2013-09-07 00:21:00,
2013-09-06 20:26:00,62.2,57.0,28.38,North,360,1.0,2.0,83,0.00,,,0.00,Weather View 32 v70,2013-09-07 00:26:00,
2013-09-06 20:31:00,61.5,56.6,28.38,North,360,0.0,2.0,84,0.00,,,0.00,Weather View 32 v70,2013-09-07 00:31:00,
2013-09-06 20:36:00,60.9,55.7,28.38,North,360,0.0,2.0,83,0.00,,,0.00,Weather View 32 v70,2013-09-07 00:36:00,
2013-09-06 20:41:00,60.5,57.2,28.38,North,360,2.0,3.0,89,0.00,,,0.00,Weather View 32 v70,2013-09-07 00:41:00,
2013-09-06 20:46:00,60.4,57.1,28.38,North,360,2.0,3.0,89,0.00,,,0.00,Weather View 32 v70,2013-09-07 00:46:00,
2013-09-06 20:51:00,60.2,57.2,28.38,North,360,2.0,3.0,90,0.00,,,0.00,Weather View 32 v70,2013-09-07 00:51:00,
2013-09-06 20:56:00,59.9,56.6,28.38,North,360,0.0,3.0,89,0.00,,,0.00,Weather View 32 v70,2013-09-07 00:56:00,
2013-09-06 21:01:00,59.6,56.7,28.38,North,360,0.0,3.0,90,0.00,,,0.00,Weather View 32 v70,2013-09-07 01:01:00,
2013-09-06 21:06:00,59.2,56.9,28.38,North,360,0.0,3.0,92,0.00,,,0.00,Weather View 32 v70,2013-09-07 01:06:00,
2013-09-06 21:11:00,58.9,57.2,28.38,North,360,0.0,3.0,94,0.00,,,0.00,Weather View 32 v70,2013-09-07 01:11:00,
2013-09-06 21:16:00,58.7,57.0,28.38,North,360,0.0,3.0,94,0.00,,,0.00,Weather View 32 v70,2013-09-07 01:16:00,
2013-09-06 21:21:00,58.6,57.2,28.38,North,360,0.0,3.0,95,0.00,,,0.00,Weather View 32 v70,2013-09-07 01:21:00,
2013-09-06 21:26:00,58.4,57.0,28.38,North,360,1.0,3.0,95,0.00,,,0.00,Weather View 32 v70,2013-09-07 01:26:00,
2013-09-06 21:32:00,58.1,56.7,28.38,North,360,2.0,3.0,95,0.00,,,0.00,Weather View 32 v70,2013-09-07 01:32:00,
2013-09-06 21:37:00,57.8,56.1,28.38,North,360,0.0,3.0,94,0.00,,,0.00,Weather View 32 v70,2013-09-07 01:37:00,
2013-09-06 21:42:00,57.5,56.1,28.38,North,360,0.0,3.0,95,0.00,,,0.00,Weather View 32 v70,2013-09-07 01:42:00,
2013-09-06 21:47:00,57.2,56.1,28.38,North,360,0.0,2.0,96,0.00,,,0.00,Weather View 32 v70,2013-09-07 01:47:00,
2013-09-06 21:52:00,56.9,56.1,28.38,North,360,0.0,2.0,97,0.00,,,0.00,Weather View 32 v70,2013-09-07 01:52:00,
2013-09-06 21:57:00,56.9,56.1,28.38,North,360,0.0,2.0,97,0.00,,,0.00,Weather View 32 v70,2013-09-07 01:57:00,
2013-09-06 22:02:00,56.9,56.1,28.38,North,360,0.0,2.0,97,0.00,,,0.00,Weather View 32 v70,2013-09-07 02:02:00,
2013-09-06 22:07:00,56.9,56.1,28.38,North,360,0.0,2.0,97,0.00,,,0.00,Weather View 32 v70,2013-09-07 02:07:00,
2013-09-06 22:12:00,56.9,55.8,28.38,North,360,0.0,2.0,96,0.00,,,0.00,Weather View 32 v70,2013-09-07 02:12:00,
2013-09-06 22:17:00,56.7,55.6,28.38,North,360,2.0,2.0,96,0.00,,,0.00,Weather View 32 v70,2013-09-07 02:17:00,
2013-09-06 22:22:00,56.4,55.6,28.38,WSW,247,2.0,3.0,97,0.00,,,0.00,Weather View 32 v70,2013-09-07 02:22:00,
2013-09-06 22:27:00,56.1,55.3,28.38,SW,225,0.0,3.0,97,0.00,,,0.00,Weather View 32 v70,2013-09-07 02:27:00,
2013-09-06 22:32:00,55.8,55.0,28.38,SW,225,0.0,3.0,97,0.00,,,0.00,Weather View 32 v70,2013-09-07 02:32:00,
2013-09-06 22:37:00,55.6,54.8,28.38,SW,225,1.0,3.0,97,0.00,,,0.00,Weather View 32 v70,2013-09-07 02:37:00,
2013-09-06 22:42:00,55.5,54.7,28.38,SW,225,0.0,3.0,97,0.00,,,0.00,Weather View 32 v70,2013-09-07 02:42:00,
2013-09-06 22:47:00,55.5,54.7,28.38,SW,225,0.0,3.0,97,0.00,,,0.00,Weather View 32 v70,2013-09-07 02:47:00,
2013-09-06 22:52:00,55.6,54.8,28.38,SW,225,0.0,3.0,97,0.00,,,0.00,Weather View 32 v70,2013-09-07 02:52:00,
2013-09-06 22:57:00,55.6,54.8,28.38,SW,225,0.0,3.0,97,0.00,,,0.00,Weather View 32 v70,2013-09-07 02:57:00,
2013-09-06 23:02:00,55.5,54.7,28.38,SW,225,0.0,3.0,97,0.00,,,0.00,Weather View 32 v70,2013-09-07 03:02:00,
2013-09-06 23:07:00,55.5,54.7,28.38,SW,225,0.0,3.0,97,0.00,,,0.00,Weather View 32 v70,2013-09-07 03:07:00,
2013-09-06 23:12:00,55.4,54.6,28.38,SW,225,0.0,3.0,97,0.00,,,0.00,Weather View 32 v70,2013-09-07 03:12:00,
2013-09-06 23:17:00,55.2,54.4,28.38,SW,225,0.0,3.0,97,0.00,,,0.00,Weather View 32 v70,2013-09-07 03:17:00,
2013-09-06 23:22:00,55.1,54.3,28.38,SW,225,0.0,2.0,97,0.00,,,0.00,Weather View 32 v70,2013-09-07 03:22:00,
2013-09-06 23:27:00,54.9,54.1,28.37,SW,225,0.0,2.0,97,0.00,,,0.00,Weather View 32 v70,2013-09-07 03:27:00,
2013-09-06 23:32:00,54.8,54.0,28.37,SW,225,0.0,2.0,97,0.00,,,0.00,Weather View 32 v70,2013-09-07 03:32:00,
2013-09-06 23:37:00,54.7,53.9,28.37,SW,225,0.0,1.0,97,0.00,,,0.00,Weather View 32 v70,2013-09-07 03:37:00,
2013-09-06 23:42:00,54.5,53.7,28.37,SW,225,0.0,0.0,97,0.00,,,0.00,Weather View 32 v70,2013-09-07 03:42:00,
2013-09-06 23:47:00,54.3,53.5,28.37,SW,225,0.0,0.0,97,0.00,,,0.00,Weather View 32 v70,2013-09-07 03:47:00,
2013-09-06 23:52:00,54.1,53.3,28.37,SW,225,0.0,0.0,97,0.00,,,0.00,Weather View 32 v70,2013-09-07 03:52:00,
2013-09-06 23:57:00,53.8,53.0,28.38,SW,225,0.0,0.0,97,0.00,,,0.00,Weather View 32 v70,2013-09-07 03:57:00,